• In Österreich
  • Länderverzeichnis
  • Für 7 Tage
  • Wassertemperatur
  • Satellitenkarten
  • Wetterkarte
  • News
  • Widgets
  • user-avatar
    Anmelden

    Stündliche Wetter Chechel'nyk

    Heute, 16 August, Donnerstag

    Zeit Temperatur Niederschläge Wind Luftdruck Luftfeuchtigkeit
    00:00 +19°C° 0,2 mm 3 m/S 737 mmHg 87%
    01:00 +19°C° 0,2 mm 3 m/S 737 mmHg 87%
    02:00 +18°C° 0,2 mm 3 m/S 737 mmHg 87%
    03:00 +18°C° 0,1 mm 3 m/S 737 mmHg 88%
    04:00 +18°C° 0,1 mm 3 m/S 737 mmHg 88%
    05:00 +17°C° 0,1 mm 2 m/S 738 mmHg 88%
    06:00 +18°C° 0,1 mm 3 m/S 738 mmHg 86%
    07:00 +19°C° 0,1 mm 3 m/S 738 mmHg 84%
    08:00 +20°C° 0,1 mm 3 m/S 738 mmHg 82%
    09:00 +21°C° 0 mm 3 m/S 738 mmHg 78%
    10:00 +22°C° 0 mm 3 m/S 738 mmHg 73%
    11:00 +24°C° 0 mm 3 m/S 738 mmHg 69%
    12:00 +25°C° 0 mm 3 m/S 738 mmHg 67%
    13:00 +25°C° 0 mm 3 m/S 738 mmHg 66%
    14:00 +26°C° 0 mm 3 m/S 738 mmHg 64%
    15:00 +26°C° 0 mm 3 m/S 738 mmHg 65%
    16:00 +26°C° 0 mm 3 m/S 738 mmHg 66%
    17:00 +26°C° 0 mm 3 m/S 737 mmHg 67%
    18:00 +24°C° 0,1 mm 2 m/S 737 mmHg 72%
    19:00 +23°C° 0,1 mm 2 m/S 737 mmHg 76%
    20:00 +21°C° 0,1 mm 2 m/S 737 mmHg 81%
    21:00 +20°C° 0,4 mm 2 m/S 737 mmHg 83%
    22:00 +20°C° 0,4 mm 2 m/S 737 mmHg 85%
    23:00 +19°C° 0,4 mm 2 m/S 738 mmHg 88%

    Morgen, 17 August, Freitag

    Zeit Temperatur Niederschläge Wind Luftdruck Luftfeuchtigkeit
    00:00 +19°C° 0,2 mm 2 m/S 738 mmHg 88%
    01:00 +19°C° 0,2 mm 2 m/S 737 mmHg 89%
    02:00 +19°C° 0,2 mm 2 m/S 737 mmHg 89%
    03:00 +18°C° 0,1 mm 2 m/S 737 mmHg 90%
    04:00 +18°C° 0,1 mm 2 m/S 737 mmHg 90%
    05:00 +18°C° 0,1 mm 2 m/S 737 mmHg 91%
    06:00 +19°C° 0,3 mm 2 m/S 737 mmHg 89%
    07:00 +19°C° 0,3 mm 2 m/S 737 mmHg 87%
    08:00 +20°C° 0,3 mm 2 m/S 738 mmHg 85%
    09:00 +21°C° 0,2 mm 3 m/S 738 mmHg 82%
    10:00 +22°C° 0,2 mm 3 m/S 738 mmHg 78%
    11:00 +24°C° 0,2 mm 3 m/S 738 mmHg 75%
    12:00 +25°C° 0,2 mm 3 m/S 737 mmHg 69%
    13:00 +26°C° 0,2 mm 3 m/S 737 mmHg 64%
    14:00 +28°C° 0,2 mm 3 m/S 737 mmHg 59%
    15:00 +27°C° 0,7 mm 2 m/S 737 mmHg 61%
    16:00 +27°C° 0,7 mm 2 m/S 737 mmHg 63%
    17:00 +27°C° 0,7 mm 1 m/S 736 mmHg 66%
    18:00 +25°C° 0,3 mm 1 m/S 736 mmHg 70%
    19:00 +24°C° 0,3 mm 1 m/S 736 mmHg 73%
    20:00 +23°C° 0,3 mm 1 m/S 736 mmHg 77%
    21:00 +22°C° 0,6 mm 1 m/S 736 mmHg 79%
    22:00 +20°C° 0,6 mm 2 m/S 736 mmHg 81%
    23:00 +20°C° 0,6 mm 2 m/S 737 mmHg 83%

    übermorgen, 18 August, Samstag

    Zeit Temperatur Niederschläge Wind Luftdruck Luftfeuchtigkeit
    00:00 +19°C° 0,8 mm 2 m/S 737 mmHg 85%
    01:00 +20°C° 0,8 mm 1 m/S 737 mmHg 86%
    02:00 +20°C° 0,8 mm 1 m/S 737 mmHg 87%
    03:00 +19°C° 0,1 mm 1 m/S 736 mmHg 87%
    04:00 +19°C° 0,1 mm 1 m/S 736 mmHg 87%
    05:00 +19°C° 0,1 mm 1 m/S 736 mmHg 86%
    06:00 +20°C° 0 mm 1 m/S 737 mmHg 83%
    07:00 +22°C° 0 mm 1 m/S 737 mmHg 79%
    08:00 +23°C° 0 mm 1 m/S 737 mmHg 76%
    09:00 +24°C° 0 mm 1 m/S 737 mmHg 71%
    10:00 +26°C° 0 mm 2 m/S 737 mmHg 66%
    11:00 +27°C° 0 mm 2 m/S 737 mmHg 61%
    12:00 +28°C° 0,5 mm 2 m/S 737 mmHg 58%
    13:00 +29°C° 0,5 mm 1 m/S 737 mmHg 55%
    14:00 +30°C° 0,5 mm 1 m/S 737 mmHg 52%
    15:00 +30°C° 0 mm 1 m/S 737 mmHg 52%
    16:00 +30°C° 0 mm 1 m/S 737 mmHg 52%
    17:00 +30°C° 0 mm 1 m/S 737 mmHg 52%
    18:00 +28°C° 0 mm 1 m/S 737 mmHg 58%
    19:00 +26°C° 0 mm 1 m/S 737 mmHg 63%
    20:00 +24°C° 0 mm 1 m/S 737 mmHg 68%
    21:00 +23°C° 0,5 mm 1 m/S 737 mmHg 73%
    22:00 +21°C° 0,5 mm 2 m/S 737 mmHg 77%
    23:00 +20°C° 0,5 mm 2 m/S 737 mmHg 82%

    19 August, Sonntag

    Zeit Temperatur Niederschläge Wind Luftdruck Luftfeuchtigkeit
    00:00 +20°C° 0,3 mm 2 m/S 738 mmHg 83%
    01:00 +21°C° 0,3 mm 1 m/S 738 mmHg 85%
    02:00 +20°C° 0,3 mm 1 m/S 738 mmHg 86%
    03:00 +20°C° 0 mm 1 m/S 738 mmHg 87%
    04:00 +20°C° 0 mm 1 m/S 738 mmHg 88%
    05:00 +20°C° 0 mm 1 m/S 738 mmHg 89%
    06:00 +21°C° 0 mm 1 m/S 738 mmHg 86%
    07:00 +21°C° 0 mm 2 m/S 738 mmHg 82%
    08:00 +23°C° 0 mm 2 m/S 738 mmHg 78%
    09:00 +25°C° 0,1 mm 2 m/S 739 mmHg 73%
    10:00 +26°C° 0,1 mm 1 m/S 739 mmHg 68%
    11:00 +28°C° 0,1 mm 1 m/S 739 mmHg 63%
    12:00 +28°C° 0 mm 1 m/S 739 mmHg 60%
    13:00 +29°C° 0 mm 2 m/S 738 mmHg 57%
    14:00 +29°C° 0 mm 2 m/S 738 mmHg 54%
    15:00 +29°C° 0,3 mm 2 m/S 738 mmHg 56%
    16:00 +29°C° 0,3 mm 2 m/S 738 mmHg 58%
    17:00 +28°C° 0,3 mm 2 m/S 738 mmHg 60%
    18:00 +27°C° 0,1 mm 2 m/S 738 mmHg 66%
    19:00 +25°C° 0,1 mm 2 m/S 738 mmHg 71%
    20:00 +23°C° 0,1 mm 2 m/S 738 mmHg 77%
    21:00 +23°C° 0 mm 2 m/S 738 mmHg 79%
    22:00 +21°C° 0 mm 2 m/S 738 mmHg 81%
    23:00 +21°C° 0 mm 1 m/S 738 mmHg 83%

    20 August, Montag

    Zeit Temperatur Niederschläge Wind Luftdruck Luftfeuchtigkeit
    00:00 +21°C° 0 mm 1 m/S 738 mmHg 84%
    01:00 +21°C° 0 mm 1 m/S 738 mmHg 85%
    02:00 +20°C° 0 mm 1 m/S 738 mmHg 86%
    03:00 +20°C° 0 mm 1 m/S 738 mmHg 87%
    04:00 +20°C° 0 mm 1 m/S 739 mmHg 88%
    05:00 +19°C° 0 mm 2 m/S 739 mmHg 89%
    06:00 +20°C° 0 mm 2 m/S 739 mmHg 84%
    07:00 +21°C° 0 mm 2 m/S 739 mmHg 80%
    08:00 +24°C° 0 mm 2 m/S 739 mmHg 76%
    09:00 +25°C° 0,1 mm 2 m/S 739 mmHg 69%
    10:00 +26°C° 0,1 mm 2 m/S 739 mmHg 63%
    11:00 +28°C° 0,1 mm 1 m/S 739 mmHg 56%
    12:00 +28°C° 0 mm 1 m/S 739 mmHg 54%
    13:00 +29°C° 0 mm 1 m/S 739 mmHg 52%
    14:00 +29°C° 0 mm 1 m/S 739 mmHg 49%
    15:00 +29°C° 0,1 mm 1 m/S 739 mmHg 53%
    16:00 +28°C° 0,1 mm 1 m/S 739 mmHg 56%
    17:00 +28°C° 0,1 mm 1 m/S 739 mmHg 59%
    18:00 +26°C° 0,1 mm 2 m/S 739 mmHg 63%
    19:00 +25°C° 0,1 mm 2 m/S 739 mmHg 68%
    20:00 +23°C° 0,1 mm 2 m/S 739 mmHg 73%
    21:00 +23°C° 0 mm 2 m/S 739 mmHg 75%
    22:00 +21°C° 0 mm 2 m/S 739 mmHg 77%
    23:00 +21°C° 0 mm 1 m/S 739 mmHg 79%

    21 August, Dienstag

    Zeit Temperatur Niederschläge Wind Luftdruck Luftfeuchtigkeit
    00:00 +21°C° 0 mm 1 m/S 739 mmHg 80%
    01:00 +21°C° 0 mm 1 m/S 739 mmHg 81%
    02:00 +20°C° 0 mm 1 m/S 739 mmHg 82%
    03:00 +20°C° 0 mm 1 m/S 739 mmHg 83%
    04:00 +20°C° 0 mm 1 m/S 739 mmHg 84%
    05:00 +19°C° 0 mm 1 m/S 739 mmHg 85%
    06:00 +21°C° 0 mm 1 m/S 739 mmHg 80%
    07:00 +22°C° 0 mm 1 m/S 739 mmHg 76%
    08:00 +24°C° 0 mm 1 m/S 739 mmHg 72%
    09:00 +25°C° 0 mm 1 m/S 739 mmHg 67%
    10:00 +27°C° 0 mm 1 m/S 739 mmHg 62%
    11:00 +28°C° 0 mm 1 m/S 739 mmHg 58%
    12:00 +29°C° 0 mm 1 m/S 739 mmHg 55%
    13:00 +29°C° 0 mm 1 m/S 739 mmHg 53%
    14:00 +30°C° 0 mm 1 m/S 739 mmHg 50%
    15:00 +30°C° 0 mm 1 m/S 739 mmHg 52%
    16:00 +29°C° 0 mm 1 m/S 738 mmHg 53%
    17:00 +29°C° 0 mm 1 m/S 738 mmHg 54%
    18:00 +28°C° 0 mm 1 m/S 738 mmHg 58%
    19:00 +26°C° 0 mm 1 m/S 738 mmHg 62%
    20:00 +25°C° 0 mm 1 m/S 738 mmHg 65%
    21:00 +24°C° 0 mm 2 m/S 738 mmHg 67%
    22:00 +23°C° 0 mm 2 m/S 738 mmHg 68%
    23:00 +23°C° 0 mm 2 m/S 738 mmHg 69%
    Mehr zeigen